Regional Weather Roundup
Issued by NWS

Home | Current Version | Previous Version | Graphics & Text | Print | Product List | Glossary On
Versions: 1 2 3 4 5 6 7 8 9 10 11 12 13 14 15 16 17 18 19 20 21 22 23 24 25 26 27 28 29 30 31 32 33 34 35 36 37 38 39 40 41 42 43 44 45 46 47 48 49 50
000
ASUS45 KPSR 171500
RWRAZ

PRELIMINARY ARIZONA REGIONAL HOURLY WEATHER ROUNDUP
NATIONAL WEATHER SERVICE PHOENIX AZ
800 AM MST WED SEP 17 2014

NOTE: FAIR INDICATES FEW OR NO CLOUDS BELOW 12,000 FEET WITH NO
SIGNIFICANT WEATHER AND/OR OBSTRUCTIONS TO VISIBILITY.

AZZ001>003-036-171600-
NORTHWEST ARIZONA

CITY           SKY/WX    TMP DP  RH WIND       PRES   REMARKS
KINGMAN        SUNNY     71  59  65 CALM      29.99S
$$

AZZ004>008-015-016-018-171600-
NORTH CENTRAL ARIZONA

CITY           SKY/WX    TMP DP  RH WIND       PRES   REMARKS
GRAND CANYON   PTSUNNY   60  52  74 CALM      30.21S
PRESCOTT       CLOUDY    65  59  81 CALM      30.10R
FLAGSTAFF      LGT RAIN  57  54  89 CALM      30.23R FOG
PAYSON         CLOUDY    64  63  94 NE8       30.11F
PAGE           MOSUNNY   74  55  51 S5        30.07R
$$

AZZ009>014-017-171600-
NORTHEAST ARIZONA

CITY           SKY/WX    TMP DP  RH WIND       PRES   REMARKS
WINSLOW        NOT AVBL
SAINT JOHNS    LGT RAIN  62  59  90 E7        30.17R
SHOW LOW       CLOUDY    57  55  94 NE6       30.21F
$$

AZZ023-171600-
GREATER PHOENIX AREA

CITY           SKY/WX    TMP DP  RH WIND       PRES   REMARKS
PHOENIX        CLOUDY    82  67  60 E10       29.80R
GLENDALE       PTSUNNY   82  68  61 N3        29.82
DEER VALLEY    CLOUDY    81  64  56 NE8       29.83R
SCOTTSDALE     CLOUDY    82  65  56 NE6       29.84S
MESA-FALCON    PTSUNNY   79  68  69 NE12      29.81S
MESA-GATEWAY   PTSUNNY   79  72  78 E3        29.84R
CHANDLER       PTSUNNY   79  73  83 CALM      29.82R
$$

AZZ027-028-171600-
SOUTHWEST MARICOPA COUNTY AND PINAL COUNTY

CITY           SKY/WX    TMP DP  RH WIND       PRES   REMARKS
CASA GRANDE    CLOUDY    79  68  69 E10       29.83R
$$

AZZ503-504-507>509-171600-
SOUTHEAST ARIZONA

CITY           SKY/WX    TMP DP  RH WIND       PRES   REMARKS
TUCSON         LGT RAIN  74  69  85 CALM      29.92R
NOGALES        RAIN      67  65  93 SW3       29.95S FOG
SIERRA VISTA   LGT RAIN  66  64  94 E13       30.04R
SAFFORD        CLOUDY    72  65  78 E8        29.99R
$$

AZZ020-021-025-026-031-171600-
SOUTHWEST ARIZONA

CITY           SKY/WX    TMP DP  RH WIND       PRES   REMARKS
YUMA           NOT AVBL
$$

CAZ031-033-041-043-047-048-061-171600-
SOUTHERN CALIFORNIA

CITY           SKY/WX    TMP DP  RH WIND       PRES   REMARKS
DOWNTOWN L.A.  SUNNY     80  63  55 CALM      29.73R
L.A. AIRPORT   MOSUNNY   77  65  66 CALM      29.74R
SAN DIEGO      MOSUNNY   80  70  71 NW7       29.74R
BURBANK        SUNNY     83  59  44 CALM      29.76S
ONTARIO        SUNNY     84  66  54 CALM      29.79R
RIVERSIDE      SUNNY     84  64  50 CALM      29.78R
PALM SPRINGS   SUNNY     87  67  51 CALM      29.80R
EL CENTRO NAS  MOSUNNY   86  64  47 NW3       29.75R
IMPERIAL       SUNNY     84  67  56 W5        29.74R
BLYTHE         MOSUNNY   81  72  74 CALM      29.78R
$$

NVZ020-UTZ003-171600-
SOUTHERN NEVADA-UTAH

CITY           SKY/WX    TMP DP  RH WIND       PRES   REMARKS
LAS VEGAS      NOT AVBL
SALT LAKE CITY MOSUNNY   75  44  33 SE13      29.98R
$$

NMZ009-TXZ055-171600-
NEW MEXICO-WEST TEXAS

CITY           SKY/WX    TMP DP  RH WIND       PRES   REMARKS
ALBUQUERQUE    LGT RAIN  62  58  86 W3        30.19R
EL PASO        CLOUDY    69  64  84 NE8       30.08F
$$


........................KEY........................
SKY/WX - SKY CONDITION/WEATHER
TMP    - TEMPERATURE IN FAHRENHEIT
DP     - DEW POINT IN FAHRENHEIT
RH     - RELATIVE HUMIDITY IN PERCENT
WIND   - DIRECTION AND SPEED IN MILES PER HOUR (MPH)
VRB    - VARIABLE WIND DIRECTION
PRES   - MEAN SEA LEVEL PRESSURE IN INCHES OF MERCURY
         F - FALLING PRESSURE   R - RISING PRESSURE
         S - STEADY PRESSURE
VSB    - VISIBILITY IN MILES
HX     - HEAT INDEX IN FAHRENHEIT
WCI    - WIND CHILL INDEX IN FAHRENHEIT
TC     - TEMPERATURE IN CELSIUS WHICH IS ALSO KNOWN AS
         TEMPERATURE IN CENTIGRADE
AFB    - AIR FORCE BASE
         LUKE AFB IS LUKE AIR FORCE BASE
         DAVIS-MONTHAN IS DAVIS-MONTHAN AIR FORCE BASE
NAS    - NAVAL AIR STATION
         EL CENTRO NAS IS EL CENTRO NAVAL AIR STATION
N/A    - NOT AVAILABLE



USA.gov is the U.S. government's official web portal to all federal, state and local government web resources and services.